Location: St. Louis
(38.6270°N, 90.1994°W)
Time: 20:43:16
(UTC-05:00)

deb Delta - Pass Details

Date: 08 July 2022
Orbit: 1084 x 1202 km, 99.8° (Epoch: 13 August)

Event Time Altitude Azimuth Distance (km) Brightness Sun altitude
Exits shadow 23:45:16 - 90° (E) 3,687 ? -26.1°
Reaches altitude 10° 23:48:50 10° 65° (ENE) 3,127 ? -26.4°
Maximum altitude 23:50:27 11° 52° (NE) 3,056 ? -26.5°
Drops below altitude 10° 23:52:04 10° 39° (NE) 3,117 ? -26.6°
Sets 23:57:16 0° 6° (N) 4,060 ? -26.9°
